Change the Weather History Date:

Saturday, January 14, 2012

  Actual Average Record
Temperature  
Mean Temperature 20 °F 28 °F  
Max Temperature 23 °F 35 °F 70 °F (1932)
Min Temperature 16 °F 21 °F -6 °F (1964)
Degree Days  
Heating Degree Days 45 37  
Month to date heating degree days 452 514  
Since 1 July heating degree days 2289 2689  
Cooling Degree Days 0 0  
Month to date cooling degree days 0 0  
Year to date cooling degree days 0 0  
Moisture  
Dew Point 12 °F    
Average Humidity 72    
Maximum Humidity 84    
Minimum Humidity 59    
Precipitation  
Precipitation 0.05 in 0.08 in 1.15 in (1999)
Month to date precipitation 1.63 1.23  
Year to date precipitation 1.63 1.23  
Snow  
Snow 0.90 in 0.40 in 3.50 in (1917)
Month to date snowfall 7.4 5.0  
Since 1 July snowfall 10.2 15.7  
Snow Depth 2.00 in    
Sea Level Pressure  
Sea Level Pressure 30.10 in    
Wind  
Wind Speed 8 mph (WSW)    
Max Wind Speed 15 mph    
Max Gust Speed 21 mph    
Visibility 6 miles    
Events Snow    
T = Trace of Precipitation, MM = Missing Value Source: NWS Daily Summary

Daily Weather History Graph

Daily Weather History Graph

Search for Another Location

Airport or City:

Trip Planner

Search our weather history database for the weather conditions in past years. The results will help you decide how hot, cold, wet, or windy it might be!

Date:

Astronomy

Jan. 14, 2012 Rise Set
Actual Time 7:42 AM EST 5:17 PM EST
Civil Twilight 7:12 AM EST 5:47 PM EST
Nautical Twilight 6:38 AM EST 6:20 PM EST
Astronomical Twilight 6:06 AM EST 6:53 PM EST
Moon 11:38 PM EST (1/14) 10:25 AM EST (1/14)
Length of Visible Light 10h 34m
Length of Day
9h 34m
Waning Gibbous, 69% of the Moon is Illuminated
Jan 14
Waning Gibbous
Jan 16
Last Quarter
Jan 23
New
Jan 30
First Quarter
Feb 7
Full

Hourly Weather History & Observations

Time (EST) Temp. Windchill Dew Point Humidity Pressure Visibility Wind Dir Wind Speed Gust Speed Precip Events Conditions
12:22 AM 19.4 °F 8.6 °F 12.2 °F 74% 29.92 in 1.5 mi WSW 9.2 mph 18.4 mph 0.00 in Snow Light Snow
12:51 AM 18.0 °F 7.7 °F 14.0 °F 84% 30.01 in 1.5 mi WSW 8.1 mph - 0.00 in Snow Light Snow
1:51 AM 18.0 °F 6.1 °F 14.0 °F 84% 30.03 in 1.5 mi WSW 10.4 mph 16.1 mph 0.01 in Snow Light Snow
2:39 AM 17.6 °F 8.2 °F 12.2 °F 79% 29.96 in 5.0 mi WSW 6.9 mph - 0.00 in Snow Light Snow
2:51 AM 18.0 °F 9.8 °F 12.9 °F 81% 30.05 in 2.0 mi West 5.8 mph 17.3 mph 0.00 in Snow Light Snow
3:38 AM 17.6 °F 5.7 °F 12.2 °F 79% 29.97 in 5.0 mi WSW 10.4 mph 16.1 mph 0.00 in Snow Light Snow
3:51 AM 18.0 °F 7.7 °F 12.9 °F 81% 30.05 in 6.0 mi WSW 8.1 mph - 0.00 in Snow Light Snow
4:51 AM 18.0 °F 8.7 °F 12.9 °F 81% 30.06 in 4.0 mi WSW 6.9 mph - 0.00 in Snow Light Snow
5:51 AM 18.0 °F 7.7 °F 12.9 °F 81% 30.09 in 5.0 mi WSW 8.1 mph - 0.00 in Snow Light Snow
6:31 AM 17.6 °F 6.4 °F 12.2 °F 79% 30.01 in 3.0 mi WSW 9.2 mph 18.4 mph 0.00 in Snow Light Snow
6:51 AM 18.0 °F 7.7 °F 12.9 °F 81% 30.10 in 4.0 mi WSW 8.1 mph - 0.00 in Snow Light Snow
7:51 AM 18.0 °F 9.8 °F 12.9 °F 81% 30.12 in 5.0 mi WSW 5.8 mph - 0.00 in Snow Light Snow
8:51 AM 19.0 °F 7.5 °F 14.0 °F 81% 30.12 in 6.0 mi WSW 10.4 mph - 0.00 in Snow Light Snow
9:51 AM 19.0 °F 6.1 °F 12.9 °F 77% 30.15 in 5.0 mi SW 12.7 mph 18.4 mph 0.00 in Snow Light Snow
10:51 AM 19.9 °F 8.6 °F 14.0 °F 78% 30.15 in 4.0 mi SW 10.4 mph - 0.00 in Snow Light Snow
11:51 AM 21.0 °F 12.4 °F 14.0 °F 74% 30.13 in 6.0 mi West 6.9 mph 16.1 mph 0.00 in Snow Light Snow
12:51 PM 21.9 °F 10.4 °F 14.0 °F 72% 30.11 in 5.0 mi West 11.5 mph 17.3 mph 0.00 in Snow Light Snow
1:51 PM 23.0 °F 13.1 °F 14.0 °F 68% 30.09 in 9.0 mi West 9.2 mph 18.4 mph 0.00 in Snow Light Snow
2:51 PM 23.0 °F 13.9 °F 12.9 °F 65% 30.11 in 9.0 mi West 8.1 mph - 0.00 in Snow Light Snow
3:51 PM 23.0 °F 14.7 °F 10.4 °F 59% 30.04 in 9.0 mi SW 6.9 mph - N/A Snow Light Snow
4:25 PM 23.0 °F 13.9 °F 10.4 °F 59% 30.06 in 9.0 mi West 8.1 mph - 0.00 in Snow Light Snow
4:51 PM 21.9 °F 12.5 °F 12.0 °F 66% 30.14 in 9.0 mi WSW 8.1 mph - 0.00 in Snow Light Snow
5:51 PM 21.9 °F 14.5 °F 10.9 °F 63% 30.16 in 9.0 mi West 5.8 mph - 0.00 in Snow Light Snow
6:51 PM 21.0 °F 13.4 °F 10.0 °F 63% 30.17 in 9.0 mi WSW 5.8 mph - 0.00 in   Overcast
7:51 PM 19.9 °F 12.1 °F 10.0 °F 65% 30.19 in 10.0 mi West 5.8 mph - N/A   Mostly Cloudy
8:51 PM 18.0 °F 9.8 °F 9.0 °F 68% 30.20 in 10.0 mi West 5.8 mph - N/A   Mostly Cloudy
9:51 PM 17.1 °F 8.7 °F 9.0 °F 71% 30.21 in 10.0 mi WNW 5.8 mph - N/A   Mostly Cloudy
10:51 PM 16.0 °F 8.8 °F 9.0 °F 74% 30.22 in 10.0 mi West 4.6 mph - N/A   Mostly Cloudy
11:51 PM 18.0 °F 9.8 °F 10.9 °F 74% 30.22 in 10.0 mi NW 5.8 mph - N/A   Overcast